26-09-2022, 00:00:01,    207,    0.5,    9.5,   0.00,   0.00, 1006.4,   67.7, -999.0
26-09-2022, 00:00:11,    207,    0.4,    9.5,   0.00,   0.00, 1006.4,   67.8, -999.0
26-09-2022, 00:00:21,    206,    0.0,    9.5,   0.00,   0.00, 1006.3,   67.6, -999.0
26-09-2022, 00:00:31,    207,    0.1,    9.4,   0.00,   0.00, 1006.4,   67.7, -999.0
26-09-2022, 00:00:41,    206,    0.1,    9.5,   0.00,   0.00, 1006.3,   67.6, -999.0
26-09-2022, 00:00:51,    206,    0.0,    9.4,   0.00,   0.00, 1006.3,   67.5, -999.0
26-09-2022, 00:01:01,    206,    0.0,    9.5,   0.00,   0.00, 1006.3,   67.5, -999.0
26-09-2022, 00:01:11,    206,    0.0,    9.5,   0.00,   0.00, 1006.2,   67.5, -999.0
26-09-2022, 00:01:21,    206,    0.0,    9.5,   0.00,   0.00, 1006.3,   67.6, -999.0
26-09-2022, 00:01:31,    206,    0.0,    9.5,   0.00,   0.00, 1006.3,   67.6, -999.0
26-09-2022, 00:01:41,    207,    0.0,    9.5,   0.00,   0.00, 1006.3,   67.5, -999.0
26-09-2022, 00:01:51,    207,    0.0,    9.5,   0.00,   0.00, 1006.3,   67.5, -999.0
26-09-2022, 00:02:01,    207,    0.0,    9.5,   0.00,   0.00, 1006.3,   67.6, -999.0
26-09-2022, 00:02:11,    207,    0.0,    9.5,   0.00,   0.00, 1006.4,   67.6, -999.0
26-09-2022, 00:02:20,    204,    0.2,    9.5,   0.00,   0.00, 1006.3,   67.7, -999.0
26-09-2022, 00:02:30,    235,    1.4,    9.6,   0.00,   0.00, 1006.5,   67.9, -999.0
26-09-2022, 00:02:41,    233,    1.7,    9.6,   0.00,   0.00, 1006.4,   67.9, -999.0
26-09-2022, 00:02:50,    224,    0.8,    9.6,   0.00,   0.00, 1006.4,   68.1, -999.0
26-09-2022, 00:03:00,    222,    2.9,    9.6,   0.00,   0.00, 1006.4,   68.0, -999.0
26-09-2022, 00:03:10,    212,    1.1,    9.6,   0.00,   0.00, 1006.4,   68.0, -999.0
26-09-2022, 00:03:20,    188,    0.3,    9.6,   0.00,   0.00, 1006.4,   67.9, -999.0
26-09-2022, 00:03:30,    190,    0.2,    9.5,   0.00,   0.00, 1006.3,   67.9, -999.0
26-09-2022, 00:03:40,    221,    1.3,    9.6,   0.00,   0.00, 1006.4,   67.9, -999.0
26-09-2022, 00:03:50,    220,    3.3,    9.6,   0.00,   0.00, 1006.4,   67.9, -999.0
26-09-2022, 00:04:00,    218,    1.5,    9.6,   0.00,   0.00, 1006.5,   68.0, -999.0
26-09-2022, 00:04:10,    218,    0.1,    9.5,   0.00,   0.00, 1006.4,   67.8, -999.0
26-09-2022, 00:04:20,    218,    0.0,    9.5,   0.00,   0.00, 1006.3,   67.7, -999.0
26-09-2022, 00:04:30,    216,    0.0,    9.5,   0.00,   0.00, 1006.3,   67.7, -999.0
26-09-2022, 00:04:40,    217,    0.0,    9.5,   0.00,   0.00, 1006.3,   67.6, -999.0
26-09-2022, 00:04:50,    218,    0.9,    9.5,   0.00,   0.00, 1006.3,   67.9, -999.0
26-09-2022, 00:05:00,    216,    0.2,    9.5,   0.00,   0.00, 1006.3,   67.8, -999.0
26-09-2022, 00:05:10,    215,    0.0,    9.5,   0.00,   0.00, 1006.3,   67.6, -999.0
26-09-2022, 00:05:20,    216,    0.2,    9.5,   0.00,   0.00, 1006.3,   67.8, -999.0
26-09-2022, 00:05:29,    216,    0.0,    9.5,   0.00,   0.00, 1006.3,   67.6, -999.0
26-09-2022, 00:05:39,    213,    0.4,    9.6,   0.00,   0.00, 1006.3,   67.9, -999.0
26-09-2022, 00:05:50,    213,    0.3,    9.6,   0.00,   0.00, 1006.3,   67.9, -999.0
26-09-2022, 00:05:59,    233,    0.1,    9.5,   0.00,   0.00, 1006.2,   67.7, -999.0
26-09-2022, 00:06:09,    234,    0.0,    9.6,   0.00,   0.00, 1006.3,   67.7, -999.0
26-09-2022, 00:06:19,    220,    0.0,    9.5,   0.00,   0.00, 1006.3,   67.8, -999.0
26-09-2022, 00:06:29,    220,    0.3,    9.6,   0.00,   0.00, 1006.2,   68.0, -999.0
26-09-2022, 00:06:39,    207,    1.4,    9.6,   0.00,   0.00, 1006.3,   68.1, -999.0
26-09-2022, 00:06:49,    207,    0.3,    9.5,   0.00,   0.00, 1006.2,   67.9, -999.0
26-09-2022, 00:06:59,    206,    0.0,    9.5,   0.00,   0.00, 1006.2,   67.9, -999.0
26-09-2022, 00:07:09,    222,    0.4,    9.5,   0.00,   0.00, 1006.2,   68.0, -999.0
26-09-2022, 00:07:19,    219,    0.3,    9.6,   0.00,   0.00, 1006.2,   68.0, -999.0
26-09-2022, 00:07:29,    219,    0.8,    9.7,   0.00,   0.00, 1006.3,   68.0, -999.0
26-09-2022, 00:07:39,    219,    0.0,    9.5,   0.00,   0.00, 1006.1,   67.7, -999.0
26-09-2022, 00:07:49,    219,    0.0,    9.5,   0.00,   0.00, 1006.1,   67.7, -999.0
26-09-2022, 00:07:59,    218,    0.0,    9.5,   0.00,   0.00, 1006.2,   67.7, -999.0
26-09-2022, 00:08:09,    218,    0.3,    9.5,   0.00,   0.00, 1006.2,   67.8, -999.0
26-09-2022, 00:08:19,    211,    0.4,    9.6,   0.00,   0.00, 1006.2,   68.1, -999.0
26-09-2022, 00:08:29,    229,    0.1,    9.5,   0.00,   0.00, 1006.1,   67.7, -999.0
26-09-2022, 00:08:38,    230,    0.8,    9.6,   0.00,   0.00, 1006.2,   68.0, -999.0
26-09-2022, 00:08:49,    209,    0.1,    9.5,   0.00,   0.00, 1006.2,   67.9, -999.0
26-09-2022, 00:08:59,    210,    0.2,    9.6,   0.00,   0.00, 1006.2,   67.9, -999.0
26-09-2022, 00:09:08,    211,    0.4,    9.6,   0.00,   0.00, 1006.2,   67.9, -999.0
26-09-2022, 00:09:18,    179,    0.8,    9.6,   0.00,   0.00, 1006.3,   68.1, -999.0
26-09-2022, 00:09:29,    181,    0.0,    9.5,   0.00,   0.00, 1006.1,   67.7, -999.0
26-09-2022, 00:09:38,    209,    1.1,    9.6,   0.00,   0.00, 1006.3,   68.0, -999.0
26-09-2022, 00:09:48,    204,    1.5,    9.6,   0.00,   0.00, 1006.3,   68.1, -999.0
26-09-2022, 00:09:58,    203,    0.4,    9.5,   0.00,   0.00, 1006.2,   68.0, -999.0
26-09-2022, 00:10:08,    188,    0.2,    9.5,   0.00,   0.00, 1006.2,   68.0, -999.0
26-09-2022, 00:10:18,    195,    0.8,    9.6,   0.00,   0.00, 1006.2,   68.1, -999.0
26-09-2022, 00:10:28,    189,    2.2,    9.5,   0.00,   0.00, 1006.2,   68.2, -999.0
26-09-2022, 00:10:38,    192,    0.8,    9.6,   0.00,   0.00, 1006.2,   68.2, -999.0
26-09-2022, 00:10:48,    194,    0.3,    9.6,   0.00,   0.00, 1006.1,   68.2, -999.0
26-09-2022, 00:10:58,    193,    0.0,    9.5,   0.00,   0.00, 1006.0,   67.9, -999.0
26-09-2022, 00:11:08,    199,    0.1,    9.5,   0.00,   0.00, 1006.0,   67.9, -999.0
26-09-2022, 00:11:18,    224,    1.7,    9.6,   0.00,   0.00, 1006.2,   68.2, -999.0
26-09-2022, 00:11:28,    204,    1.2,    9.6,   0.00,   0.00, 1006.2,   68.3, -999.0
26-09-2022, 00:11:38,    201,    0.8,    9.6,   0.00,   0.00, 1006.2,   68.2, -999.0
26-09-2022, 00:11:48,    201,    0.7,    9.5,   0.00,   0.00, 1006.2,   68.2, -999.0
26-09-2022, 00:11:58,    199,    0.3,    9.6,   0.00,   0.00, 1006.1,   68.2, -999.0
26-09-2022, 00:12:08,    238,    0.6,    9.5,   0.00,   0.00, 1006.1,   68.2, -999.0
26-09-2022, 00:12:17,    189,    0.4,    9.5,   0.00,   0.00, 1006.1,   68.3, -999.0
26-09-2022, 00:12:27,    206,    0.8,    9.6,   0.00,   0.00, 1006.1,   68.3, -999.0
26-09-2022, 00:12:38,    212,    0.7,    9.6,   0.00,   0.00, 1006.1,   68.3, -999.0
26-09-2022, 00:12:47,    214,    0.7,    9.5,   0.00,   0.00, 1006.1,   68.3, -999.0
26-09-2022, 00:12:57,    216,    0.6,    9.5,   0.00,   0.00, 1006.1,   68.3, -999.0
26-09-2022, 00:13:07,    215,    0.0,    9.5,   0.00,   0.00, 1006.0,   68.0, -999.0
26-09-2022, 00:13:17,    210,    0.0,    9.5,   0.00,   0.00, 1006.1,   68.1, -999.0
26-09-2022, 00:13:27,    214,    0.0,    9.5,   0.00,   0.00, 1006.0,   68.1, -999.0
26-09-2022, 00:13:37,    218,    2.2,    9.5,   0.00,   0.00, 1006.1,   68.4, -999.0
26-09-2022, 00:13:47,    228,    2.6,    9.6,   0.00,   0.00, 1006.1,   68.4, -999.0
26-09-2022, 00:13:57,    224,    0.6,    9.6,   0.00,   0.00, 1006.2,   68.4, -999.0
26-09-2022, 00:14:07,    222,    0.1,    9.5,   0.00,   0.00, 1006.0,   68.2, -999.0
26-09-2022, 00:14:17,    221,    0.5,    9.5,   0.00,   0.00, 1006.1,   68.4, -999.0
26-09-2022, 00:14:27,    222,    0.6,    9.5,   0.00,   0.00, 1006.2,   68.5, -999.0
26-09-2022, 00:14:37,    222,    0.0,    9.5,   0.00,   0.00, 1006.0,   68.3, -999.0
26-09-2022, 00:14:47,    221,    0.2,    9.5,   0.00,   0.00, 1006.0,   68.3, -999.0
26-09-2022, 00:14:57,    221,    0.0,    9.5,   0.00,   0.00, 1006.0,   68.2, -999.0
26-09-2022, 00:15:07,    210,    1.4,    9.5,   0.00,   0.00, 1006.1,   68.5, -999.0
26-09-2022, 00:15:17,    252,    1.8,    9.5,   0.00,   0.00, 1006.1,   68.6, -999.0
26-09-2022, 00:15:26,    252,    0.1,    9.5,   0.00,   0.00, 1005.9,   68.2, -999.0
26-09-2022, 00:15:36,    252,    0.0,    9.5,   0.00,   0.00, 1005.9,   68.2, -999.0
26-09-2022, 00:15:47,    251,    0.1,    9.5,   0.00,   0.00, 1006.0,   68.3, -999.0
26-09-2022, 00:15:56,    211,    1.1,    9.5,   0.00,   0.00, 1006.1,   68.5, -999.0
26-09-2022, 00:16:06,    211,    1.0,    9.6,   0.00,   0.00, 1006.1,   68.5, -999.0
26-09-2022, 00:16:17,    210,    0.8,    9.6,   0.00,   0.00, 1006.1,   68.6, -999.0
26-09-2022, 00:16:26,    209,    0.3,    9.6,   0.00,   0.00, 1006.1,   68.5, -999.0
26-09-2022, 00:16:36,    220,    0.5,    9.6,   0.00,   0.00, 1006.0,   68.5, -999.0
26-09-2022, 00:16:46,    220,    0.2,    9.6,   0.00,   0.00, 1006.1,   68.5, -999.0
26-09-2022, 00:16:56,    217,    0.8,    9.5,   0.00,   0.00, 1006.1,   68.5, -999.0
26-09-2022, 00:17:06,    202,    0.3,    9.6,   0.00,   0.00, 1006.0,   68.5, -999.0
26-09-2022, 00:17:16,    202,    0.1,    9.5,   0.00,   0.00, 1006.0,   68.4, -999.0
26-09-2022, 00:17:26,    220,    0.3,    9.5,   0.00,   0.00, 1006.0,   68.6, -999.0
26-09-2022, 00:17:36,    249,    1.6,    9.6,   0.00,   0.00, 1006.0,   68.6, -999.0
26-09-2022, 00:17:46,    247,    0.5,    9.5,   0.00,   0.00, 1005.9,   68.6, -999.0
26-09-2022, 00:17:56,    174,    1.0,    9.5,   0.00,   0.00, 1006.0,   68.6, -999.0
26-09-2022, 00:18:06,    199,    0.8,    9.6,   0.00,   0.00, 1005.9,   68.6, -999.0
26-09-2022, 00:18:16,    216,    1.7,    9.6,   0.00,   0.00, 1005.9,   68.7, -999.0
26-09-2022, 00:18:26,    192,    1.9,    9.6,   0.00,   0.00, 1005.9,   68.7, -999.0
26-09-2022, 00:18:35,    191,    0.6,    9.5,   0.00,   0.00, 1005.9,   68.7, -999.0
26-09-2022, 00:18:46,    195,    0.6,    9.5,   0.00,   0.00, 1005.9,   68.6, -999.0
26-09-2022, 00:18:56,    226,    0.6,    9.5,   0.00,   0.00, 1005.8,   68.5, -999.0
26-09-2022, 00:19:05,    193,    1.8,    9.5,   0.00,   0.00, 1005.9,   68.8, -999.0
26-09-2022, 00:19:15,    217,    0.3,    9.6,   0.00,   0.00, 1005.9,   68.8, -999.0
26-09-2022, 00:19:26,    217,    0.0,    9.5,   0.00,   0.00, 1005.7,   68.5, -999.0
26-09-2022, 00:19:35,    210,    0.5,    9.5,   0.00,   0.00, 1005.8,   68.7, -999.0
26-09-2022, 00:19:45,    228,    1.0,    9.6,   0.00,   0.00, 1005.9,   68.8, -999.0
26-09-2022, 00:19:55,    244,    0.6,    9.6,   0.00,   0.00, 1005.9,   68.8, -999.0
26-09-2022, 00:20:05,    218,    1.0,    9.5,   0.00,   0.00, 1005.9,   68.9, -999.0
26-09-2022, 00:20:15,    208,    2.0,    9.6,   0.00,   0.00, 1005.9,   68.9, -999.0
26-09-2022, 00:20:25,    205,    1.2,    9.6,   0.00,   0.00, 1005.9,   68.9, -999.0
26-09-2022, 00:20:35,    239,    1.6,    9.6,   0.00,   0.00, 1005.8,   68.9, -999.0
26-09-2022, 00:20:45,    223,    1.6,    9.6,   0.00,   0.00, 1005.8,   68.9, -999.0
26-09-2022, 00:20:55,    203,    1.3,    9.5,   0.00,   0.00, 1005.9,   68.9, -999.0
26-09-2022, 00:21:05,    212,    2.1,    9.6,   0.00,   0.00, 1005.8,   69.0, -999.0
26-09-2022, 00:21:15,    214,    1.2,    9.6,   0.00,   0.00, 1005.8,   69.0, -999.0
26-09-2022, 00:21:25,    209,    1.5,    9.5,   0.00,   0.00, 1005.8,   69.1, -999.0
26-09-2022, 00:21:35,    232,    0.2,    9.5,   0.00,   0.00, 1005.7,   68.9, -999.0
26-09-2022, 00:21:45,    229,    0.0,    9.5,   0.00,   0.00, 1005.6,   68.8, -999.0
26-09-2022, 00:21:55,    228,    0.2,    9.5,   0.00,   0.00, 1005.7,   69.0, -999.0
26-09-2022, 00:22:05,    227,    0.0,    9.4,   0.00,   0.00, 1005.7,   68.8, -999.0
26-09-2022, 00:22:14,    225,    0.2,    9.4,   0.00,   0.00, 1005.7,   68.9, -999.0
26-09-2022, 00:22:25,    208,    0.5,    9.5,   0.00,   0.00, 1005.7,   69.0, -999.0
26-09-2022, 00:22:35,    226,    2.2,    9.6,   0.00,   0.00, 1005.8,   69.1, -999.0
26-09-2022, 00:22:44,    234,    1.7,    9.5,   0.00,   0.00, 1005.7,   69.2, -999.0
26-09-2022, 00:22:54,    198,    0.8,    9.6,   0.00,   0.00, 1005.7,   69.2, -999.0
26-09-2022, 00:23:05,    198,    0.4,    9.5,   0.00,   0.00, 1005.7,   69.3, -999.0
26-09-2022, 00:23:14,    201,    0.5,    9.6,   0.00,   0.00, 1005.7,   69.3, -999.0
26-09-2022, 00:23:24,    195,    1.0,    9.6,   0.00,   0.00, 1005.7,   69.3, -999.0
26-09-2022, 00:23:34,    189,    1.3,    9.6,   0.00,   0.00, 1005.7,   69.2, -999.0
26-09-2022, 00:23:44,    165,    1.4,    9.6,   0.00,   0.00, 1005.7,   69.3, -999.0
26-09-2022, 00:23:54,    184,    0.3,    9.5,   0.00,   0.00, 1005.6,   69.1, -999.0
26-09-2022, 00:24:04,    184,    0.0,    9.5,   0.00,   0.00, 1005.5,   68.8, -999.0
26-09-2022, 00:24:14,    184,    0.0,    9.4,   0.00,   0.00, 1005.5,   68.8, -999.0
26-09-2022, 00:24:24,    185,    0.0,    9.5,   0.00,   0.00, 1005.5,   68.9, -999.0
26-09-2022, 00:24:34,    162,    0.2,    9.4,   0.00,   0.00, 1005.5,   69.0, -999.0
26-09-2022, 00:24:44,    216,    0.8,    9.5,   0.00,   0.00, 1005.6,   69.2, -999.0
26-09-2022, 00:24:54,    214,    0.2,    9.5,   0.00,   0.00, 1005.5,   69.2, -999.0
26-09-2022, 00:25:04,    217,    1.4,    9.5,   0.00,   0.00, 1005.6,   69.3, -999.0
26-09-2022, 00:25:14,    203,    1.0,    9.5,   0.00,   0.00, 1005.5,   69.4, -999.0
26-09-2022, 00:25:23,    201,    0.8,    9.5,   0.00,   0.00, 1005.5,   69.4, -999.0
26-09-2022, 00:25:33,    200,    0.0,    9.5,   0.00,   0.00, 1005.4,   69.1, -999.0
26-09-2022, 00:25:44,    201,    0.0,    9.5,   0.00,   0.00, 1005.4,   69.2, -999.0
26-09-2022, 00:25:53,    214,    1.3,    9.6,   0.00,   0.00, 1005.5,   69.5, -999.0
26-09-2022, 00:26:03,    199,    2.2,    9.5,   0.00,   0.00, 1005.5,   69.6, -999.0
26-09-2022, 00:26:15,    203,    0.5,    9.4,   0.00,   0.00, 1005.4,   69.4, -999.0
26-09-2022, 00:26:23,    206,    0.1,    9.4,   0.00,   0.00, 1005.4,   69.3, -999.0
26-09-2022, 00:26:33,    207,    1.0,    9.5,   0.00,   0.00, 1005.5,   69.4, -999.0
26-09-2022, 00:26:43,    205,    0.7,    9.5,   0.00,   0.00, 1005.5,   69.5, -999.0
26-09-2022, 00:26:53,    218,    0.5,    9.5,   0.00,   0.00, 1005.5,   69.5, -999.0
26-09-2022, 00:27:03,    214,    1.2,    9.6,   0.00,   0.00, 1005.5,   69.6, -999.0
26-09-2022, 00:27:13,    210,    1.7,    9.5,   0.00,   0.00, 1005.5,   69.6, -999.0
26-09-2022, 00:27:23,    203,    2.1,    9.5,   0.00,   0.00, 1005.5,   69.6, -999.0
26-09-2022, 00:27:33,    212,    1.1,    9.5,   0.00,   0.00, 1005.5,   69.5, -999.0
26-09-2022, 00:27:43,    210,    0.4,    9.5,   0.00,   0.00, 1005.5,   69.6, -999.0
26-09-2022, 00:27:53,    196,    2.0,    9.5,   0.00,   0.00, 1005.5,   69.6, -999.0
26-09-2022, 00:28:03,    195,    0.3,    9.5,   0.00,   0.00, 1005.4,   69.6, -999.0
26-09-2022, 00:28:13,    195,    0.0,    9.4,   0.00,   0.00, 1005.3,   69.3, -999.0
26-09-2022, 00:28:23,    196,    0.0,    9.4,   0.00,   0.00, 1005.4,   69.3, -999.0
26-09-2022, 00:28:33,    191,    1.6,    9.5,   0.00,   0.00, 1005.5,   69.7, -999.0
26-09-2022, 00:28:43,    190,    0.0,    9.4,   0.00,   0.00, 1005.3,   69.5, -999.0
26-09-2022, 00:28:53,    190,    0.0,    9.4,   0.00,   0.00, 1005.3,   69.3, -999.0
26-09-2022, 00:29:02,    190,    0.0,    9.4,   0.00,   0.00, 1005.3,   69.4, -999.0
26-09-2022, 00:29:12,    191,    0.1,    9.5,   0.00,   0.00, 1005.4,   69.6, -999.0
26-09-2022, 00:29:23,    198,    0.0,    9.4,   0.00,   0.00, 1005.3,   69.5, -999.0
26-09-2022, 00:29:32,    236,    0.4,    9.4,   0.00,   0.00, 1005.4,   69.7, -999.0
26-09-2022, 00:29:42,    200,    0.7,    9.5,   0.00,   0.00, 1005.4,   69.7, -999.0
26-09-2022, 00:29:52,    201,    1.0,    9.5,   0.00,   0.00, 1005.4,   69.9, -999.0
26-09-2022, 00:30:02,    200,    0.1,    9.5,   0.00,   0.00, 1005.4,   69.6, -999.0
26-09-2022, 00:30:12,    200,    0.0,    9.4,   0.00,   0.00, 1005.3,   69.4, -999.0
26-09-2022, 00:30:22,    200,    0.0,    9.4,   0.00,   0.00, 1005.2,   69.5, -999.0
26-09-2022, 00:30:32,    200,    0.0,    9.4,   0.00,   0.00, 1005.2,   69.4, -999.0
26-09-2022, 00:30:42,    204,    0.0,    9.4,   0.00,   0.00, 1005.3,   69.5, -999.0
26-09-2022, 00:30:52,    204,    0.0,    9.4,   0.00,   0.00, 1005.2,   69.5, -999.0
26-09-2022, 00:31:02,    191,    0.9,    9.5,   0.00,   0.00, 1005.4,   69.9, -999.0
26-09-2022, 00:31:12,    192,    0.2,    9.5,   0.00,   0.00, 1005.3,   69.9, -999.0
26-09-2022, 00:31:22,    211,    0.7,    9.5,   0.00,   0.00, 1005.4,   69.9, -999.0
26-09-2022, 00:31:32,    223,    1.7,    9.5,   0.00,   0.00, 1005.4,   70.0, -999.0
26-09-2022, 00:31:42,    219,    0.4,    9.5,   0.00,   0.00, 1005.3,   70.0, -999.0
26-09-2022, 00:31:52,    219,    0.0,    9.4,   0.00,   0.00, 1005.2,   69.8, -999.0
26-09-2022, 00:32:02,    218,    0.0,    9.4,   0.00,   0.00, 1005.2,   69.8, -999.0
26-09-2022, 00:32:11,    197,    0.6,    9.5,   0.00,   0.00, 1005.3,   70.0, -999.0
26-09-2022, 00:32:21,    199,    0.3,    9.5,   0.00,   0.00, 1005.3,   69.9, -999.0
26-09-2022, 00:32:32,    199,    0.4,    9.5,   0.00,   0.00, 1005.3,   70.1, -999.0
26-09-2022, 00:32:41,    199,    0.0,    9.5,   0.00,   0.00, 1005.2,   69.9, -999.0
26-09-2022, 00:32:51,    198,    0.0,    9.4,   0.00,   0.00, 1005.1,   69.7, -999.0
26-09-2022, 00:33:01,    199,    0.3,    9.5,   0.00,   0.00, 1005.2,   70.0, -999.0
26-09-2022, 00:33:11,    198,    0.4,    9.5,   0.00,   0.00, 1005.3,   70.1, -999.0
26-09-2022, 00:33:21,    199,    0.1,    9.5,   0.00,   0.00, 1005.2,   69.9, -999.0
26-09-2022, 00:33:31,    191,    2.2,    9.5,   0.00,   0.00, 1005.3,   70.2, -999.0
26-09-2022, 00:33:41,    200,    0.9,    9.5,   0.00,   0.00, 1005.3,   70.3, -999.0
26-09-2022, 00:33:51,    205,    0.3,    9.5,   0.00,   0.00, 1005.2,   70.1, -999.0
26-09-2022, 00:34:01,    193,    0.2,    9.5,   0.00,   0.00, 1005.2,   70.1, -999.0
26-09-2022, 00:34:11,    191,    0.6,    9.5,   0.00,   0.00, 1005.2,   70.3, -999.0
26-09-2022, 00:34:21,    198,    0.5,    9.6,   0.00,   0.00, 1005.2,   70.3, -999.0
26-09-2022, 00:34:31,    201,    0.8,    9.5,   0.00,   0.00, 1005.2,   70.4, -999.0
26-09-2022, 00:34:41,    193,    0.4,    9.5,   0.00,   0.00, 1005.1,   70.3, -999.0
26-09-2022, 00:34:51,    193,    0.1,    9.5,   0.00,   0.00, 1005.0,   70.2, -999.0
26-09-2022, 00:35:01,    192,    0.2,    9.5,   0.00,   0.00, 1005.1,   70.3, -999.0
26-09-2022, 00:35:11,    192,    0.0,    9.4,   0.00,   0.00, 1005.0,   70.1, -999.0
26-09-2022, 00:35:21,    192,    0.0,    9.5,   0.00,   0.00, 1005.0,   70.1, -999.0
26-09-2022, 00:35:31,    192,    0.1,    9.5,   0.00,   0.00, 1005.0,   70.2, -999.0
26-09-2022, 00:35:41,    156,    0.9,    9.5,   0.00,   0.00, 1005.1,   70.2, -999.0
26-09-2022, 00:35:50,    156,    0.1,    9.5,   0.00,   0.00, 1005.0,   69.9, -999.0
26-09-2022, 00:36:00,    156,    0.0,    9.5,   0.00,   0.00, 1004.9,   69.8, -999.0
26-09-2022, 00:36:11,    156,    0.0,    9.5,   0.00,   0.00, 1004.9,   69.7, -999.0
26-09-2022, 00:36:20,    156,    0.0,    9.5,   0.00,   0.00, 1004.9,   69.9, -999.0
26-09-2022, 00:36:30,    157,    0.0,    9.5,   0.00,   0.00, 1004.9,   69.9, -999.0
26-09-2022, 00:36:40,    157,    0.0,    9.5,   0.00,   0.00, 1005.0,   70.0, -999.0
26-09-2022, 00:36:50,    158,    0.0,    9.4,   0.00,   0.00, 1005.0,   70.1, -999.0
26-09-2022, 00:37:00,    165,    0.2,    9.5,   0.00,   0.00, 1005.0,   70.2, -999.0
26-09-2022, 00:37:10,    167,    0.2,    9.5,   0.00,   0.00, 1005.0,   70.3, -999.0
26-09-2022, 00:37:20,    167,    0.0,    9.4,   0.00,   0.00, 1004.9,   70.1, -999.0
26-09-2022, 00:37:30,    167,    0.0,    9.4,   0.00,   0.00, 1004.9,   70.1, -999.0
26-09-2022, 00:37:40,    167,    0.0,    9.4,   0.00,   0.00, 1004.9,   70.0, -999.0
26-09-2022, 00:37:50,    167,    0.0,    9.4,   0.00,   0.00, 1004.9,   70.1, -999.0
26-09-2022, 00:38:00,    167,    0.0,    9.4,   0.00,   0.00, 1004.9,   70.1, -999.0
26-09-2022, 00:38:10,    173,    0.0,    9.5,   0.00,   0.00, 1004.9,   70.1, -999.0
26-09-2022, 00:38:20,    173,    0.0,    9.5,   0.00,   0.00, 1004.9,   70.1, -999.0
26-09-2022, 00:38:30,    175,    0.1,    9.5,   0.00,   0.00, 1005.0,   70.2, -999.0
26-09-2022, 00:38:40,    183,    0.4,    9.5,   0.00,   0.00, 1005.1,   70.5, -999.0
26-09-2022, 00:38:50,    256,    1.8,    9.4,   0.00,   0.00, 1005.1,   70.6, -999.0
26-09-2022, 00:39:00,    227,    1.3,    9.5,   0.00,   0.00, 1005.1,   70.6, -999.0
26-09-2022, 00:39:09,    227,    0.2,    9.6,   0.00,   0.00, 1005.0,   70.6, -999.0
26-09-2022, 00:39:20,    213,    0.3,    9.5,   0.00,   0.00, 1005.0,   70.5, -999.0
26-09-2022, 00:39:29,    193,    0.3,    9.5,   0.00,   0.00, 1005.0,   70.6, -999.0
26-09-2022, 00:39:39,    193,    0.2,    9.5,   0.00,   0.00, 1005.0,   70.5, -999.0
26-09-2022, 00:39:49,    199,    0.3,    9.6,   0.00,   0.00, 1005.0,   70.8, -999.0
26-09-2022, 00:39:59,    199,    0.0,    9.5,   0.00,   0.00, 1004.9,   70.5, -999.0
26-09-2022, 00:40:09,    199,    0.0,    9.5,   0.00,   0.00, 1004.9,   70.4, -999.0
26-09-2022, 00:40:19,    199,    0.0,    9.4,   0.00,   0.00, 1004.9,   70.3, -999.0
26-09-2022, 00:40:29,    199,    0.0,    9.5,   0.00,   0.00, 1004.9,   70.3, -999.0
26-09-2022, 00:40:39,    190,    0.3,    9.5,   0.00,   0.00, 1005.0,   70.5, -999.0
26-09-2022, 00:40:49,    194,    0.1,    9.6,   0.00,   0.00, 1004.9,   70.5, -999.0
26-09-2022, 00:40:59,    193,    0.1,    9.4,   0.00,   0.00, 1004.9,   70.5, -999.0
26-09-2022, 00:41:09,    193,    0.0,    9.5,   0.00,   0.00, 1004.9,   70.3, -999.0
26-09-2022, 00:41:19,    193,    0.0,    9.5,   0.00,   0.00, 1004.9,   70.3, -999.0
26-09-2022, 00:41:29,    228,    0.0,    9.5,   0.00,   0.00, 1004.8,   70.3, -999.0
26-09-2022, 00:41:39,    228,    0.0,    9.5,   0.00,   0.00, 1004.8,   70.2, -999.0
26-09-2022, 00:41:49,    228,    0.0,    9.5,   0.00,   0.00, 1004.9,   70.3, -999.0
26-09-2022, 00:41:59,    225,    0.2,    9.5,   0.00,   0.00, 1004.9,   70.5, -999.0
26-09-2022, 00:42:09,    225,    0.5,    9.6,   0.00,   0.00, 1005.1,   70.7, -999.0
26-09-2022, 00:42:18,    221,    0.7,    9.6,   0.00,   0.00, 1005.0,   70.8, -999.0
26-09-2022, 00:42:29,    221,    0.4,    9.6,   0.00,   0.00, 1005.0,   70.8, -999.0
26-09-2022, 00:42:38,    220,    0.3,    9.5,   0.00,   0.00, 1004.9,   70.8, -999.0
26-09-2022, 00:42:48,    220,    0.3,    9.6,   0.00,   0.00, 1004.9,   70.7, -999.0
26-09-2022, 00:42:59,    220,    0.0,    9.5,   0.00,   0.00, 1004.8,   70.6, -999.0
26-09-2022, 00:43:08,    220,    0.0,    9.5,   0.00,   0.00, 1004.8,   70.7, -999.0
26-09-2022, 00:43:18,    220,    0.0,    9.5,   0.00,   0.00, 1004.8,   70.7, -999.0
26-09-2022, 00:43:28,    220,    0.4,    9.6,   0.00,   0.00, 1004.9,   70.8, -999.0
26-09-2022, 00:43:38,    220,    0.0,    9.6,   0.00,   0.00, 1004.8,   70.8, -999.0
26-09-2022, 00:43:48,    220,    0.0,    9.6,   0.00,   0.00, 1004.8,   70.8, -999.0
26-09-2022, 00:43:58,    220,    0.0,    9.6,   0.00,   0.00, 1004.8,   70.7, -999.0
26-09-2022, 00:44:08,    220,    0.0,    9.6,   0.00,   0.00, 1004.8,   70.7, -999.0
26-09-2022, 00:44:18,    221,    0.3,    9.6,   0.00,   0.00, 1004.8,   71.0, -999.0
26-09-2022, 00:44:28,    221,    0.0,    9.6,   0.00,   0.00, 1004.7,   70.7, -999.0
26-09-2022, 00:44:38,    221,    0.0,    9.6,   0.00,   0.00, 1004.8,   70.9, -999.0
26-09-2022, 00:44:48,    220,    0.0,    9.6,   0.00,   0.00, 1004.8,   70.6, -999.0
26-09-2022, 00:44:58,    201,    0.4,    9.6,   0.00,   0.00, 1004.9,   71.1, -999.0
26-09-2022, 00:45:08,    201,    0.0,    9.5,   0.00,   0.00, 1004.7,   70.8, -999.0
26-09-2022, 00:45:18,    201,    0.0,    9.6,   0.00,   0.00, 1004.8,   70.9, -999.0
26-09-2022, 00:45:27,    201,    0.3,    9.7,   0.00,   0.00, 1004.8,   71.2, -999.0
26-09-2022, 00:45:38,    201,    0.0,    9.6,   0.00,   0.00, 1004.8,   71.1, -999.0
26-09-2022, 00:45:48,    200,    0.0,    9.5,   0.00,   0.00, 1004.7,   71.0, -999.0
26-09-2022, 00:45:57,    200,    0.0,    9.5,   0.00,   0.00, 1004.7,   71.1, -999.0
26-09-2022, 00:46:08,    201,    0.0,    9.5,   0.00,   0.00, 1004.7,   71.2, -999.0
26-09-2022, 00:46:17,    203,    0.0,    9.5,   0.00,   0.00, 1004.7,   71.4, -999.0
26-09-2022, 00:46:27,    202,    0.0,    9.5,   0.00,   0.00, 1004.7,   71.4, -999.0
26-09-2022, 00:46:37,    203,    0.0,    9.5,   0.00,   0.00, 1004.7,   71.6, -999.0